Regional Weather Roundup
Issued by NWS

Home | Current Version | Previous Version | Graphics & Text | Print | Product List | Glossary On
Versions: 1 2 3 4 5 6 7 8 9 10 11 12 13 14 15 16 17 18 19 20 21 22 23 24 25 26 27 28 29 30 31 32 33 34 35 36 37 38 39 40 41 42 43 44 45 46 47 48 49 50
000
ASUS43 KFSD 240310
RWRSD

WEATHER ROUNDUP FOR SOUTH DAKOTA
NATIONAL WEATHER SERVICE SIOUX FALLS SD
1000 PM CDT MON APR 23 2018

NOTE: "FAIR" INDICATES FEW OR NO CLOUDS BELOW 12,000 FEET WITH NO
SIGNIFICANT WEATHER AND/OR OBSTRUCTIONS TO VISIBILITY.


SDZ001>005-009-010-012>017-240400-
NORTHWEST AND NORTH CENTRAL SOUTH DAKOTA

CITY           SKY/WX    TMP DP  RH WIND       PRES   REMARKS
BUFFALO          N/A     38  34  85 N22       30.20R
FAITH            N/A     47  44  90 N24       30.12R
MOBRIDGE       CLOUDY    58  43  57 NE16G25   30.10R
$$

SDZ012>016-024>037-041>051-057-063-072>074-240400-
SOUTHWEST AND SOUTH CENTRAL SOUTH DAKOTA

CITY           SKY/WX    TMP DP  RH WIND       PRES   REMARKS
RAPID CTY ARPT CLOUDY    41  36  82 NW35G45   30.15R
PIERRE         CLOUDY    59  41  51 E9        30.04S
CUSTER         CLOUDY    35  29  78 N16G22    30.14R WCI  25
ELLSWORTH AFB  CLOUDY    39  37  93 NW40G49   30.14
PHILIP         LGT RAIN  52  51  97 N17       30.05R
PINE RIDGE     LGT RAIN  42  40  92 SW22G31   30.17R
SPEARFISH      LGT SNOW  32  32 100 W18G30    30.29R WCI  20
WINNER         CLOUDY    58  42  55 SE12      30.08R
$$

SDZ004>011-016>023-039-040-240400-
NORTHEAST SOUTH DAKOTA

CITY           SKY/WX    TMP DP  RH WIND       PRES   REMARKS
ABERDEEN       CLOUDY    59  47  64 NE17      30.14R
WATERTOWN      CLOUDY    57  42  57 SE8       30.14R
BROOKINGS      MOCLDY    54  42  64 SE8       30.14R
SISSETON         N/A     54  47  77 NW6       30.15R
$$

SDZ017-020-022-023-036>040-048>070-240400-
SOUTHEAST SOUTH DAKOTA

CITY           SKY/WX    TMP DP  RH WIND       PRES   REMARKS
SIOUX FALLS    PTCLDY    54  41  61 E8        30.14R
HURON          CLOUDY    60  43  53 SE9       30.11R
CHAMBERLAIN    CLOUDY    61  45  55 SE9       30.09R
MITCHELL       CLOUDY    58  45  62 SE8       30.12R
YANKTON        CLEAR     56  37  49 NE8       30.11R
$$

ABBREVIATIONS USED IN REMARKS
   TC - TEMPERATURE IN CELSIUS
  WCI - WIND CHILL INDEX
   HX - HEAT INDEX
  VSB - VISIBILITY





USA.gov is the U.S. government's official web portal to all federal, state and local government web resources and services.